Погода в Дузе

Тунис     33°27′42″N   9°01′41″E
темп.,
°C
ветер,
м/с
пор.,
м/с
влажн.,
%
обл.,
%
осадки,
мм/ч
давл.,
гПа
погр.,
м
23 апреля, пт
пт2301:00+20св122144100 0.0 1009548
04:00+20св91751100 0.0 1011600
07:00+20св8135399 0.0 1013745
10:00+24св9104282 0.0 10141187
13:00+26св883348 0.0 10131772
16:00+27св562862 0.0 10122049
19:00+23всв9113738 0.0 1014485
22:00+20в7125298 0.0 1016500
24 апреля, сб
сб2401:00+17в61167100 0.0 1017427
04:00+16всв612741 0.0 1016446
07:00+16всв712712 0.0 1018648
10:00+21всв99420 0.0 10191124
13:00+24св66310 0.0 10181695
16:00+26св66245 0.0 10172008
19:00+23в58295 0.0 1017170
22:00+18вюв812530 0.0 1019331
25 апреля, вс
вс2501:00+16в611630 0.0 1019305
04:00+15в510715 0.0 1018225
07:00+15в61070100 0.0 1018385
10:00+22в673513 0.0 1018878
13:00+27вюв33195 0.0 10171462
16:00+29юв3314100 0.0 10141512
19:00+26всв5618100 0.0 101377
22:00+21в81343100 0.0 1014267
26 апреля, пн
пн2601:00+19в61153100 0.0 1013253
04:00+18всв5857100 0.0 1013118
07:00+19всв7114967 0.0 1012247
10:00+29юв71017100 0.0 1011716
13:00+36ю8111099 0.0 10081773
16:00+40ю711790 0.0 10042954
19:00+34ссз3513100 0.0 100336
22:00+28в5626100 0.0 100455
27 апреля, вт
вт2701:00+30ююз581669 0.0 100385
04:00+27юз44175 0.0 100330
07:00+26зюз33165 0.0 100522
10:00+32всв121120 0.0 1006661
13:00+38зюз61465 0.0 10043584
16:00+39зюз9217100 0.0 10024015
19:00+33ссз5813100 0.0 1002103
22:00+23всв81247100 0.0 1004207